Douglas Bisbee, AZ

2:54 PM MST on April 27, 2017 (GMT -0700)
Bisbee Douglas International

Weather History for KDUG - January, 2014

Change the Weather History Date:

Thursday, January 9, 2014

  Actual Average Record
Temperature  
Mean Temperature 41 °F 46 °F  
Max Temperature 61 °F 62 °F 79 °F (2017)
Min Temperature 21 °F 29 °F 7 °F (1967)
Degree Days  
Heating Degree Days 24 19  
Month to date heating degree days 173  
Since 1 July heating degree days 1197  
Cooling Degree Days 0 0  
Month to date cooling degree days 0  
Year to date cooling degree days 0  
Moisture  
Dew Point 15 °F    
Average Humidity 37    
Maximum Humidity 60    
Minimum Humidity 16    
Precipitation  
Precipitation 0.00 in 0.02 in 0.40 in (2001)
Month to date precipitation 0.21  
Year to date precipitation 0.21  
Sea Level Pressure  
Sea Level Pressure 30.03 in    
Wind  
Wind Speed 4 mph (SSE)    
Max Wind Speed 10 mph    
Max Gust Speed -    
Visibility 10 miles    
Events      
T = Trace of Precipitation, MM = Missing Value Source: NWS Daily Summary

Daily Weather History Graph

Daily Weather History Graph

Search for Another Location

Airport or City:

Trip Planner

Search our weather history database for the weather conditions in past years. The results will help you decide how hot, cold, wet, or windy it might be!

Date:

Astronomy

Jan. 09, 2014 Rise Set
Actual Time 7:18 AM MST 5:32 PM MST
Civil Twilight 6:52 AM MST 5:59 PM MST
Nautical Twilight 6:22 AM MST 6:29 PM MST
Astronomical Twilight 5:52 AM MST 6:58 PM MST
Moon 12:54 PM MST (1/9) 1:38 AM MST (1/9)
Length of Visible Light 11h 07m
Length of Day
10h 14m
Waxing Gibbous, 66% of the Moon is Illuminated
Jan 9
Waxing Gibbous
Jan 15
Full
Jan 23
Last Quarter
Jan 30
New
Feb 6
First Quarter

Hourly Weather History & Observations

Time (MST) Temp. Windchill Dew Point Humidity Pressure Visibility Wind Dir Wind Speed Gust Speed Precip Events Conditions
12:56 AM 30.0 °F 24.1 °F 12.0 °F 47% 30.03 in 10.0 mi WNW 5.8 mph - N/A   Clear
1:56 AM 30.9 °F 25.2 °F 12.9 °F 47% 30.02 in 10.0 mi North 5.8 mph - N/A   Clear
2:56 AM 26.1 °F - 10.9 °F 53% 30.05 in 10.0 mi Calm Calm - N/A   Clear
3:56 AM 28.9 °F - 12.9 °F 51% 30.03 in 10.0 mi Calm Calm - N/A   Clear
4:56 AM 28.0 °F - 12.0 °F 51% 30.05 in 10.0 mi Calm Calm - N/A   Clear
5:56 AM 21.0 °F - 9.0 °F 60% 30.09 in 10.0 mi Calm Calm - N/A   Clear
6:56 AM 24.1 °F - 12.0 °F 60% 30.09 in 10.0 mi Calm Calm - N/A   Clear
7:56 AM 28.9 °F - 12.9 °F 51% 30.10 in 10.0 mi Calm Calm - N/A   Clear
8:56 AM 36.0 °F - 15.1 °F 43% 30.12 in 10.0 mi Calm Calm - N/A   Clear
9:56 AM 46.0 °F - 17.1 °F 31% 30.10 in 10.0 mi Calm Calm - N/A   Clear
10:56 AM 52.0 °F - 16.0 °F 24% 30.06 in 10.0 mi SSE 5.8 mph - N/A   Clear
11:56 AM 55.0 °F - 16.0 °F 22% 30.03 in 10.0 mi South 4.6 mph - N/A   Clear
12:56 PM 59.0 °F - 14.0 °F 17% 29.98 in 10.0 mi SSE 4.6 mph - N/A   Clear
1:56 PM 60.1 °F - 14.0 °F 16% 29.94 in 10.0 mi South 4.6 mph - N/A   Clear
2:56 PM 61.0 °F - 14.0 °F 16% 29.95 in 10.0 mi Calm Calm - N/A   Clear
4:56 PM 57.9 °F - 18.0 °F 21% 29.95 in 10.0 mi ESE 6.9 mph - N/A   Clear
5:56 PM 54.0 °F - 14.0 °F 21% 29.99 in 10.0 mi SSW 5.8 mph - N/A   Clear
6:56 PM 52.0 °F - 21.0 °F 30% 30.00 in 10.0 mi SSW 5.8 mph - N/A   Clear
7:56 PM 51.1 °F - 16.0 °F 25% 30.01 in 10.0 mi West 10.4 mph - N/A   Clear
8:56 PM 46.0 °F 42.5 °F 15.1 °F 29% 30.02 in 10.0 mi NW 6.9 mph - N/A   Clear
9:56 PM 43.0 °F 40.3 °F 18.0 °F 37% 30.01 in 10.0 mi SE 4.6 mph - N/A   Clear
10:56 PM 37.9 °F 34.4 °F 19.0 °F 47% 30.01 in 10.0 mi East 4.6 mph - N/A   Clear
11:56 PM 39.0 °F 32.8 °F 21.9 °F 50% 29.99 in 10.0 mi East 9.2 mph - N/A   Clear